KANSAI_INTL current weather conditions

sailwx.info

Wind from 210 at 6 knots

Air temperature 10.0° C
Visibility: greater than 5.4 NM
Dewpoint 5.0° C

Last reported at 2017-Feb-19 15:30 UTC.
Time now 2017-Feb-19 16:58 UTC

Location: N 34°25' E 135°15'.
View on Google Maps.

See reports from other nearby stations

  
Tides and Currents Weather Stations Pressure Air Temp Water Temp Dewpoint Dewpoint Depression Visibility Wind Speed Wind Dir Waves Ship Positions
date/time (UTC)wind fromknots sea level pressurealtimeterstation pressurevisibilityair tempwater tempwave heightnotes
2017-Feb-19 15:30 210 6 5.410.0
2017-Feb-19 15:00 150 5 5.4 9.0
2017-Feb-19 14:30 150 6 5.4 9.0
2017-Feb-19 14:00 160 5 5.410.0
2017-Feb-19 13:30 170 4 5.4 9.0
2017-Feb-19 13:00 220 2 5.4 9.0
2017-Feb-19 12:30 130 5 5.4 9.0
2017-Feb-19 12:00 140 4 5.4 9.0
2017-Feb-19 11:30 5.4 8.0
2017-Feb-19 11:00 170 2 5.4 8.0
2017-Feb-19 10:30 200 6 5.4 8.0
2017-Feb-19 10:00 210 7 5.4 8.0
2017-Feb-19 09:30 210 7 5.4 8.0
2017-Feb-19 09:00 250 6 5.4 8.0
2017-Feb-19 08:30 250 6 5.4 8.0
2017-Feb-19 08:00 250 5 5.4 9.0
2017-Feb-19 07:30 260 5 5.4 9.0
2017-Feb-19 07:00 200 5 5.4 9.0
2017-Feb-19 06:30 190 6 5.4 8.0
2017-Feb-19 06:00 190 6 5.4 8.0
2017-Feb-19 05:30 180 4 5.4 8.0
2017-Feb-19 05:00 200 6 5.4 8.0
2017-Feb-19 04:30 190 6 5.4 8.0
2017-Feb-19 04:00 200 7 5.4 8.0
2017-Feb-19 03:30 220 7 5.4 8.0
2017-Feb-19 03:00 200 7 5.4 7.0
2017-Feb-19 02:30 200 6 5.4 7.0
2017-Feb-19 02:00 200 5 5.4 7.0
2017-Feb-19 01:30 250 4 5.4 7.0
2017-Feb-19 01:00 320 5 5.4 7.0
2017-Feb-19 00:30 330 7 5.4 6.0
2017-Feb-19 00:00 320 7 5.4 6.0
2017-Feb-18 23:30 360 5 5.4 5.0
2017-Feb-18 23:00 340 6 5.4 4.0
2017-Feb-18 22:30 330 7 5.4 4.0
2017-Feb-18 22:00 340 8 5.4 4.0
2017-Feb-18 21:30 340 8 5.4 4.0
2017-Feb-18 21:00 340 9 5.4 4.0
2017-Feb-18 20:30 020 12 5.4 4.0
2017-Feb-18 20:00 360 12 5.4 4.0
2017-Feb-18 19:30 350 11 5.4 4.0
2017-Feb-18 19:00 340 12 5.4 4.0
2017-Feb-18 18:30 350 13 5.4 4.0
2017-Feb-18 18:00 340 13 5.4 5.0
2017-Feb-18 17:30 340 13 5.4 5.0
2017-Feb-18 17:00 340 14 5.4 5.0
2017-Feb-18 16:30 300 19 5.4 6.0
2017-Feb-18 16:18 300 20 gusting 29 5.4 6.0
2017-Feb-18 16:00 300 20 5.4 6.0
2017-Feb-18 15:30 290 25 5.4 6.0
2017-Feb-18 15:00 300 21 5.4 6.0
2017-Feb-18 14:37 300 18 gusting 27 5.4 7.0
2017-Feb-18 14:30 300 19 5.4 7.0
2017-Feb-18 14:00 300 15 5.4 7.0
2017-Feb-18 13:30 300 17 5.4 7.0
2017-Feb-18 13:00 310 14 5.4 8.0
2017-Feb-18 12:30 310 11 5.4 8.0
2017-Feb-18 12:00 310 15 5.4 8.0
2017-Feb-18 11:30 310 14 5.4 9.0
2017-Feb-18 11:00 300 13 5.4 9.0
2017-Feb-18 10:30 280 8 5.4 9.0
2017-Feb-18 10:00 200 4 5.4 8.0
2017-Feb-18 09:30 5.4 9.0
2017-Feb-18 09:00 360 2 5.4 9.0
2017-Feb-18 08:30 360 4 5.4 9.0
2017-Feb-18 08:00 360 5 5.4 9.0
2017-Feb-18 07:30 330 4 5.4 9.0
2017-Feb-18 07:00 070 5 5.4 9.0
2017-Feb-18 06:30 110 4 5.4 9.0
2017-Feb-18 06:00 010 2 5.4 9.0
2017-Feb-18 05:30 350 6 5.4 9.0
2017-Feb-18 05:00 020 2 5.4 9.0
2017-Feb-18 04:30 080 2 5.4 9.0
2017-Feb-18 04:00 060 4 5.4 9.0
2017-Feb-18 03:30 060 4 5.4 9.0
2017-Feb-18 03:00 060 6 5.4 9.0
2017-Feb-18 02:30 060 6 5.4 9.0
2017-Feb-18 02:00 050 8 5.4 9.0
2017-Feb-18 01:30 040 8 5.4 8.0
2017-Feb-18 01:00 040 8 5.4 8.0
2017-Feb-18 00:30 030 8 5.4 8.0
2017-Feb-18 00:00 030 9 5.4 8.0
2017-Feb-17 23:30 040 8 5.4 8.0
2017-Feb-17 23:00 040 7 5.4 8.0
2017-Feb-17 22:30 030 9 5.4 7.0
2017-Feb-17 22:00 040 8 5.4 7.0
2017-Feb-17 21:30 030 9 5.4 7.0
2017-Feb-17 21:00 040 9 5.4 7.0
2017-Feb-17 20:30 040 9 5.4 7.0
2017-Feb-17 20:00 040 9 5.4 7.0
2017-Feb-17 19:30 050 8 5.4 7.0
2017-Feb-17 19:00 070 7 5.4 8.0
2017-Feb-17 18:30 050 8 5.4 8.0
2017-Feb-17 18:00 040 12 5.4 8.0
2017-Feb-17 17:30 040 13 5.4 8.0
2017-Feb-17 17:00 040 13 5.4 8.0
2017-Feb-17 16:30 040 12 5.4 8.0
2017-Feb-17 16:00 040 13 5.4 9.0